Location: Edmonton
(53.5500°N, 113.5000°W)
Time: 15:18:24
(UTC-07:00)

N. Korean satellite - Pass Details

Date: 26 October 2019
Orbit: 456 x 506 km, 97.2° (Epoch: 16 November)

Event Time Altitude Azimuth Distance (km) Brightness Sun altitude
Rises 07:11:17 0° 19° (NNE) 2,575 10.4 -11.0°
Reaches altitude 10° 07:13:26 10° 26° (NNE) 1,697 9.6 -10.7°
Maximum altitude 07:16:55 40° 98° (E) 742 8.2 -10.2°
Drops below altitude 10° 07:20:24 10° 170° (S) 1,705 9.6 -9.6°
Sets 07:22:34 0° 177° (S) 2,589 10.4 -9.3°
